Holland, IN

5:43 PM EST on February 19, 2017 (GMT -0500)
Huntingburg

Weather History for KHNB - October, 2012

Change the Weather History Date:

Saturday, October 20, 2012

  Actual Average Record
Temperature  
Mean Temperature 50 °F -  
Max Temperature 55 °F 63 °F 78 °F (2003)
Min Temperature 44 °F 44 °F 33 °F (1999)
Degree Days  
Heating Degree Days 16    
Moisture  
Dew Point 43 °F    
Average Humidity 78    
Maximum Humidity 93    
Minimum Humidity 67    
Precipitation  
Precipitation 0.00 in - - ()
Sea Level Pressure  
Sea Level Pressure 29.90 in    
Wind  
Wind Speed 7 mph (WSW)    
Max Wind Speed 13 mph    
Max Gust Speed 17 mph    
Visibility 10 miles    
Events      
Averages and records for this station are not official NWS values.
T = Trace of Precipitation, MM = Missing Value Source: NWS Daily Summary

Daily Weather History Graph

Daily Weather History Graph

Search for Another Location

Airport or City:

Trip Planner

Search our weather history database for the weather conditions in past years. The results will help you decide how hot, cold, wet, or windy it might be!

Date:

Astronomy

Oct. 20, 2012 Rise Set
Actual Time 8:02 AM EDT 7:02 PM EDT
Civil Twilight 7:35 AM EDT 7:29 PM EDT
Nautical Twilight 7:04 AM EDT 7:59 PM EDT
Astronomical Twilight 6:33 AM EDT 8:30 PM EDT
Moon 1:35 PM EDT (10/20) 11:50 PM EDT (10/20)
Length of Visible Light 11h 53m
Length of Day
11h 00m
Waxing Crescent, 34% of the Moon is Illuminated
Oct 20
Waxing Crescent
Oct 21
First Quarter
Oct 29
Full
Nov 6
Last Quarter
Nov 13
New

Hourly Weather History & Observations

Time (EDT) Temp. Windchill Dew Point Humidity Pressure Visibility Wind Dir Wind Speed Gust Speed Precip Events Conditions
12:15 AM 46.4 °F 42.9 °F 41.0 °F 81% 29.79 in 10.0 mi SSW 6.9 mph - N/A   Partly Cloudy
12:36 AM 46.4 °F 42.9 °F 41.0 °F 81% 29.79 in 10.0 mi SSW 6.9 mph - N/A   Clear
12:55 AM 46.4 °F 43.5 °F 41.0 °F 81% 29.79 in 10.0 mi SSW 5.8 mph - N/A   Partly Cloudy
1:15 AM 46.4 °F 44.3 °F 41.0 °F 81% 29.79 in 10.0 mi SSW 4.6 mph - N/A   Scattered Clouds
1:35 AM 46.4 °F 43.5 °F 41.0 °F 81% 29.79 in 10.0 mi SSW 5.8 mph - N/A   Scattered Clouds
1:55 AM 46.4 °F 43.5 °F 42.8 °F 87% 29.79 in 10.0 mi SW 5.8 mph - N/A   Mostly Cloudy
2:15 AM 48.2 °F - 42.8 °F 82% 29.79 in 10.0 mi WSW 9.2 mph - N/A   Overcast
2:35 AM 48.2 °F - 42.8 °F 82% 29.80 in 10.0 mi West 10.4 mph - N/A   Overcast
2:55 AM 48.2 °F - 42.8 °F 82% 29.80 in 10.0 mi West 8.1 mph - N/A   Overcast
3:15 AM 48.2 °F - 42.8 °F 82% 29.81 in 10.0 mi West 10.4 mph - N/A   Overcast
3:35 AM 48.2 °F - 42.8 °F 82% 29.81 in 10.0 mi West 11.5 mph - N/A   Overcast
3:55 AM 48.2 °F - 42.8 °F 82% 29.81 in 10.0 mi West 11.5 mph 17.3 mph N/A   Overcast
4:15 AM 48.2 °F - 42.8 °F 82% 29.81 in 10.0 mi West 9.2 mph - N/A   Overcast
4:35 AM 48.2 °F - 42.8 °F 82% 29.81 in 10.0 mi West 10.4 mph - N/A   Overcast
4:55 AM 48.2 °F - 42.8 °F 82% 29.81 in 10.0 mi West 10.4 mph - N/A   Overcast
5:15 AM 46.4 °F 42.4 °F 41.0 °F 81% 29.81 in 10.0 mi West 8.1 mph - N/A   Overcast
5:35 AM 46.4 °F 42.4 °F 41.0 °F 81% 29.82 in 10.0 mi WSW 8.1 mph - N/A   Mostly Cloudy
6:15 AM 44.6 °F 42.2 °F 39.2 °F 81% 29.83 in 10.0 mi WSW 4.6 mph - N/A   Partly Cloudy
6:35 AM 44.6 °F 43.1 °F 39.2 °F 81% 29.83 in 10.0 mi SSW 3.5 mph - N/A   Partly Cloudy
6:55 AM 44.6 °F 42.2 °F 39.2 °F 81% 29.84 in 10.0 mi SSW 4.6 mph - N/A   Scattered Clouds
7:35 AM 44.6 °F 42.2 °F 41.0 °F 87% 29.85 in 10.0 mi SSW 4.6 mph - N/A   Mostly Cloudy
7:55 AM 44.6 °F 42.2 °F 42.8 °F 93% 29.85 in 10.0 mi SW 4.6 mph - N/A   Overcast
8:15 AM 46.4 °F 44.3 °F 42.8 °F 87% 29.86 in 10.0 mi WSW 4.6 mph - N/A   Overcast
8:35 AM 46.4 °F 44.3 °F 42.8 °F 87% 29.87 in 10.0 mi WSW 4.6 mph - N/A   Overcast
8:55 AM 46.4 °F 43.5 °F 42.8 °F 87% 29.88 in 10.0 mi WSW 5.8 mph - N/A   Overcast
9:15 AM 46.4 °F 43.5 °F 42.8 °F 87% 29.89 in 10.0 mi WSW 5.8 mph - N/A   Overcast
9:35 AM 46.4 °F 43.5 °F 42.8 °F 87% 29.90 in 10.0 mi SW 5.8 mph - N/A   Overcast
9:55 AM 48.2 °F - 42.8 °F 82% 29.90 in 9.0 mi WSW 6.9 mph - N/A   Overcast
10:15 AM 48.2 °F - 42.8 °F 82% 29.91 in 10.0 mi WSW 8.1 mph - N/A   Overcast
10:35 AM 48.2 °F - 44.6 °F 87% 29.92 in 10.0 mi West 8.1 mph - N/A   Overcast
11:15 AM 50.0 °F - 44.6 °F 82% 29.93 in 10.0 mi West 9.2 mph - N/A   Overcast
11:35 AM 51.8 °F - 42.8 °F 71% 29.93 in 10.0 mi West 9.2 mph - N/A   Overcast
11:55 AM 51.8 °F - 42.8 °F 71% 29.93 in 10.0 mi WNW 12.7 mph - N/A   Overcast
12:15 PM 51.8 °F - 42.8 °F 71% 29.93 in 10.0 mi West 11.5 mph - N/A   Overcast
12:35 PM 51.8 °F - 42.8 °F 71% 29.93 in 10.0 mi WNW 8.1 mph - N/A   Overcast
12:55 PM 51.8 °F - 42.8 °F 71% 29.94 in 10.0 mi West 6.9 mph - N/A   Overcast
1:15 PM 51.8 °F - 42.8 °F 71% 29.94 in 10.0 mi West 6.9 mph - N/A   Overcast
1:35 PM 51.8 °F - 42.8 °F 71% 29.94 in 10.0 mi West 9.2 mph - N/A   Overcast
1:55 PM 53.6 °F - 42.8 °F 67% 29.94 in 10.0 mi WNW 9.2 mph - N/A   Overcast
2:15 PM 53.6 °F - 42.8 °F 67% 29.93 in 10.0 mi WNW 10.4 mph - N/A   Overcast
2:35 PM 53.6 °F - 42.8 °F 67% 29.93 in 10.0 mi NW 6.9 mph - N/A   Overcast
2:55 PM 53.6 °F - 42.8 °F 67% 29.93 in 10.0 mi West 9.2 mph - N/A   Overcast
3:15 PM 53.6 °F - 42.8 °F 67% 29.92 in 10.0 mi WSW 6.9 mph - N/A   Overcast
3:35 PM 53.6 °F - 42.8 °F 67% 29.93 in 10.0 mi WSW 8.1 mph - N/A   Overcast
3:55 PM 53.6 °F - 42.8 °F 67% 29.93 in 10.0 mi West 9.2 mph - N/A   Overcast
4:15 PM 53.6 °F - 42.8 °F 67% 29.93 in 10.0 mi WSW 6.9 mph - N/A   Overcast
4:35 PM 53.6 °F - 42.8 °F 67% 29.94 in 10.0 mi West 5.8 mph - N/A   Overcast
4:55 PM 53.6 °F - 44.6 °F 72% 29.94 in 10.0 mi WSW 6.9 mph - N/A   Overcast
5:15 PM 53.6 °F - 44.6 °F 72% 29.93 in 10.0 mi SW 6.9 mph - N/A   Overcast
5:35 PM 55.4 °F - 44.6 °F 67% 29.93 in 10.0 mi WSW 4.6 mph - N/A   Overcast
5:55 PM 53.6 °F - 44.6 °F 72% 29.94 in 10.0 mi WSW 4.6 mph - N/A   Mostly Cloudy
6:15 PM 53.6 °F - 44.6 °F 72% 29.95 in 10.0 mi West 4.6 mph - N/A   Overcast
6:35 PM 55.4 °F - 44.6 °F 67% 29.95 in 10.0 mi Calm Calm - N/A   Overcast
6:55 PM 53.6 °F - 42.8 °F 67% 29.95 in 7.0 mi Calm Calm - N/A   Mostly Cloudy
7:15 PM 51.8 °F - 42.8 °F 71% 29.95 in 5.0 mi Calm Calm - N/A   Overcast
7:35 PM 51.8 °F - 42.8 °F 71% 29.95 in 9.0 mi Calm Calm - N/A   Mostly Cloudy
7:55 PM 51.8 °F - 42.8 °F 71% 29.95 in 10.0 mi Calm Calm - N/A   Overcast
8:15 PM 50.0 °F - 44.6 °F 82% 29.96 in 10.0 mi SSE 3.5 mph - N/A   Overcast
8:35 PM 48.2 °F - 44.6 °F 87% 29.96 in 10.0 mi SSE 4.6 mph - N/A   Overcast
8:55 PM 50.0 °F - 44.6 °F 82% 29.96 in 10.0 mi SE 5.8 mph - N/A   Scattered Clouds
9:15 PM 48.2 °F - 42.8 °F 82% 29.97 in 10.0 mi SE 3.5 mph - N/A   Clear
9:35 PM 46.4 °F - 42.8 °F 87% 29.97 in 10.0 mi Calm Calm - N/A   Clear
9:55 PM 46.4 °F 45.2 °F 42.8 °F 87% 29.98 in 10.0 mi SE 3.5 mph - N/A   Clear
10:15 PM 46.4 °F 45.2 °F 42.8 °F 87% 29.99 in 10.0 mi ESE 3.5 mph - N/A   Clear
10:35 PM 46.4 °F 44.3 °F 42.8 °F 87% 29.99 in 10.0 mi SE 4.6 mph - N/A   Clear
10:55 PM 46.4 °F 44.3 °F 42.8 °F 87% 29.99 in 10.0 mi ESE 4.6 mph - N/A   Clear
11:15 PM 46.4 °F 44.3 °F 42.8 °F 87% 30.00 in 10.0 mi ESE 4.6 mph - N/A   Clear
11:35 PM 46.4 °F 45.2 °F 42.8 °F 87% 30.00 in 10.0 mi ESE 3.5 mph - N/A   Clear
11:55 PM 46.4 °F 45.2 °F 42.8 °F 87% 30.00 in 10.0 mi ESE 3.5 mph - N/A   Clear